User: anonymous   Login
Location: Unspecified
(0.0000°N, 0.0000°E)
Time: 21:20:01
(UTC+00:00)
Language:

eXCITe - Orbit

View from above orbital plane
View from above orbital plane
View from above satellite
View from above satellite

Ground track
Ground track

The orbit is defined by the following mean orbital elements,

1 43758U          26110.18831567 +.00000000 +00000-0 +46283-3 0 00005
2 43758  97.4560 184.9398 0009256 117.8338 242.3849 15.43133583    03
Epoch (UTC): 20 April 2026 04:31:10
Eccentricity: 0.0009256
inclination: 97.4560°
perigee height: 431 km
apogee height: 443 km
right ascension of ascending node: 184.9398°
argument of perigee: 117.8338°
revolutions per day: 15.43133583
mean anomaly at epoch: 242.3849°

The dashed part of the orbit path shows where the satellite is in the earth's shadow,  

DLR